Regional Weather Roundup
Issued by NWS

Home | Current Version | Previous Version | Text Only | Print | Product List | Glossary On
Versions: 1 2 3 4 5 6 7 8 9 10 11 12 13 14 15 16 17 18 19 20 21 22 23 24 25 26 27 28 29 30 31 32 33 34 35 36 37 38 39 40 41 42 43 44 45 46 47 48 49 50
000
ASUS43 KFSD 271810
RWRSD

WEATHER ROUNDUP FOR SOUTH DAKOTA
NATIONAL WEATHER SERVICE SIOUX FALLS SD
100 PM CDT FRI MAY 27 2016

NOTE: "FAIR" INDICATES FEW OR NO CLOUDS BELOW 12,000 FEET WITH NO
SIGNIFICANT WEATHER AND/OR OBSTRUCTIONS TO VISIBILITY.


SDZ001>005-009-010-012>017-271900-
NORTHWEST AND NORTH CENTRAL SOUTH DAKOTA

CITY           SKY/WX    TMP DP  RH WIND       PRES   REMARKS
BUFFALO          N/A     68  43  40 MISG      29.78F
FAITH            N/A     66  45  46 NE8       29.84S
MOBRIDGE       CLOUDY    71  48  43 N9        29.81R
$$

SDZ012>016-024>037-041>051-057-063-072>074-271900-
SOUTHWEST AND SOUTH CENTRAL SOUTH DAKOTA

CITY           SKY/WX    TMP DP  RH WIND       PRES   REMARKS
RAPID CTY ARPT CLOUDY    64  45  49 N17       29.86S
PIERRE         CLOUDY    66  54  65 SE8       29.82S
CUSTER         CLOUDY    52  40  63 E9        29.92R
ELLSWORTH AFB  CLOUDY    64  44  47 N12       29.86R
PHILIP         LGT RAIN  62  49  62 E3        29.86S
PINE RIDGE     LGT RAIN  55  48  77 SE6       29.90R
WINNER         MOCLDY    65  55  70 N13       29.80F
$$

SDZ004>011-016>023-039-040-271900-
NORTHEAST SOUTH DAKOTA

CITY           SKY/WX    TMP DP  RH WIND       PRES   REMARKS
ABERDEEN       PTSUNNY   72  55  55 NE6       29.77S
WATERTOWN      LGT RAIN  60  57  89 CALM      29.80S
BROOKINGS      CLOUDY    64  58  80 W8        29.78S
SISSETON         N/A     73  51  46 SE14      29.75R
$$

SDZ017-020-022-023-036>040-048>070-271900-
SOUTHEAST SOUTH DAKOTA

CITY           SKY/WX    TMP DP  RH WIND       PRES   REMARKS
SIOUX FALLS    CLOUDY    71  58  63 VRB3      29.76S
HURON          LGT RAIN  63  60  90 W7        29.79S
CHAMBERLAIN    LGT RAIN  59  59  99 N16       29.79F
MITCHELL       CLOUDY    65  61  87 W15       29.80R
YANKTON        MOSUNNY   70  57  64 E6        29.75R
$$

ABBREVIATIONS USED IN REMARKS
   TC - TEMPERATURE IN CELSIUS
  WCI - WIND CHILL INDEX
   HX - HEAT INDEX
  VSB - VISIBILITY





USA.gov is the U.S. government's official web portal to all federal, state and local government web resources and services.